OPS 4682 DEB, 18967

Orbit data source: Space-Track

OPS 4682 DEB, 18967 is space debris in LEO originally from a launch on Sat, 03 Apr 1965 UTC launched from the Air Force Western Test Range (AFWTR). Debris objects in space refer to the collection of defunct objects orbiting the Earth. Examples of debris include non-operational satellites, rocket bodies, and fragments generated from explosions, collisions, or faulty payload assembly.

Loading next visibility...
Identifier
18967, 1965-027AP
Orbit
LEO
Country
Flag of USUS
Related business
Manufacturer
Unknown
Mission
Spacecraft
Bus & Motor
Unknown
Mass
Unknown
Launch date (UTC)
1965-04-03 (61 years ago)
Launch vehicle
Unknown
Launch site
Air Force Western Test Range (AFWTR)
Object type
Payload
Rocket body
Debris
Shape & HBR
Unknown shape, 0.1 m
Radar Cross Section
Small (<0.1 m²)

Expand to show TLE details & history
Last TLE update: 9 hours ago

TLE from 9 hours ago
0 OPS 4682 DEB
1 18967U 65027AP  26121.48669778  .00000601  00000-0  20856-2 0  9998
2 18967  90.2493   9.3354 0026314 271.8247 269.8126 12.96022331812263
Epoch: 2026-05-01T11:40Z
TLE epoch observation values (Epoch: 2026-05-01T11:40:50.688Z)
Latitude
-1.45608°
Longitude
154.69964°
Altitude
1,280.909 km
Speed
7.215 km/s
True Right ascension
12h 37m 18s
True Declination
-1° 26' 53"
Sunlit
Object was in full shadow at epoch
Visualization orbit readout
Latitude
Unknown
Longitude
Unknown
Altitude
Unknown
Speed
Unknown
Apparent Right ascension
Unknown
Apparent Declination
Unknown
Sunlit
N/A
Visualization observer readout
Local Sidereal Time
03:52:27
Azimuth
Unknown
Elevation
Unknown
Doppler factor
Unknown
Orbital elements
Apogee altitude
1,294.982 km
Perigee altitude
1,254.706 km
Semi-major axis
7,652.981 km
Eccentricity
0.00263
Inclination
90.2493°
RAAN
9.3354°
Arg. of periapsis
271.8247°
True anomaly
269.51107°
Mean anomaly
269.8126°
Eccentric anomaly
269.66183°
Mean motion
3.24188 °/min
Orbital period
111.05 mins
BSTAR
0.0020856
Loading maneuver chart data...
Computing Atmospheric mass density...
Loading historical data...
Loading historical data...
Loading historical data...
Loading historical data...
Loading historical data...
Loading historical data...
Loading historical data...

Documentation

Showing up to 5 results
|